CDT,Max TemperatureF,Mean TemperatureF,Min TemperatureF,Max Dew PointF,MeanDew PointF,Min DewpointF,Max Humidity, Mean Humidity, Min Humidity, Max Sea Level PressureIn, Mean Sea Level PressureIn, Min Sea Level PressureIn, Max VisibilityMiles, Mean VisibilityMiles, Min VisibilityMiles, Max Wind SpeedMPH, Mean Wind SpeedMPH, Max Gust SpeedMPH,PrecipitationIn, CloudCover, Events, WindDirDegrees
2013-7-1,74,70,67,66,64,62,90,83,69,29.93,29.88,29.82,10,10,5,17,7,23,0.08,7,Rain-Thunderstorm,338
2013-7-2,75,70,66,65,63,61,89,80,67,30.05,29.96,29.88,10,10,7,15,7,17,0.00,7,,281
2013-7-3,83,74,66,64,61,56,88,69,40,30.12,30.07,30.04,10,9,3,8,3,,0.00,4,,336
2013-7-4,88,76,63,68,64,61,92,71,44,30.09,30.05,30.00,10,9,4,13,3,17,0.00,1,,76
2013-7-5,87,76,66,70,66,63,92,71,49,30.10,30.05,30.01,10,10,4,12,3,,0.00,3,,101
2013-7-6,87,78,69,71,67,60,88,72,51,30.09,30.05,29.99,10,10,2,13,4,18,0.47,3,Rain-Thunderstorm,132
2013-7-7,90,78,66,73,68,63,92,71,43,30.10,30.06,30.03,10,10,7,10,2,,0.00,1,,165
2013-7-8,93,82,72,73,71,62,89,67,35,30.15,30.10,30.05,10,10,10,9,3,,0.00,0,,178
2013-7-9,95,85,75,75,72,68,85,63,42,30.10,30.05,29.97,10,10,10,12,5,16,0.00,1,,193
2013-7-10,90,84,79,74,73,69,84,69,52,30.02,29.96,29.91,10,10,10,12,5,,0.10,2,,243
2013-7-11,88,78,67,74,66,57,89,65,41,30.04,29.99,29.93,10,10,10,14,4,21,0.00,1,,6
2013-7-12,86,75,64,61,58,52,82,58,34,30.09,30.05,30.01,10,10,10,14,5,20,0.00,0,,28
2013-7-13,87,74,62,64,60,56,88,62,35,30.07,30.04,30.00,10,10,5,13,3,17,0.00,1,,42
2013-7-14,89,78,66,73,69,62,91,79,53,30.13,30.09,30.03,10,9,0,12,3,21,1.03,3,Rain,73
2013-7-15,90,82,73,75,73,71,93,75,56,30.23,30.19,30.13,10,10,5,14,4,16,0.00,2,Rain,110
2013-7-16,93,82,72,74,72,70,92,73,48,30.31,30.26,30.23,10,10,2,7,2,,0.00,0,,97
2013-7-17,95,84,73,76,73,68,91,69,42,30.33,30.26,30.19,10,9,4,7,1,,0.00,0,,46
2013-7-18,95,84,75,77,74,71,92,75,46,30.22,30.13,30.06,10,8,2,9,2,,0.02,0,Rain-Thunderstorm,103
2013-7-19,92,82,72,73,70,68,90,67,48,30.08,30.01,29.93,10,9,3,10,3,,0.00,0,,198
2013-7-20,93,84,75,74,71,67,85,67,46,29.95,29.92,29.82,10,10,10,14,6,24,0.00,1,Thunderstorm,193
2013-7-21,89,80,71,74,71,67,90,80,58,29.96,29.91,29.87,10,9,2,17,4,25,1.02,4,Rain-Thunderstorm,129
2013-7-22,89,81,73,76,73,70,92,78,58,29.91,29.86,29.81,10,9,3,12,5,17,0.62,5,Rain-Thunderstorm,215
2013-7-23,90,81,73,74,72,69,90,75,55,29.92,29.85,29.78,10,10,2,18,7,24,0.20,2,Rain-Thunderstorm,232
2013-7-24,84,75,67,70,65,59,89,71,47,30.01,29.93,29.86,10,10,7,13,6,,0.04,2,Rain,6
2013-7-25,83,72,61,64,60,57,88,68,45,30.10,30.06,30.01,10,10,10,9,4,,0.00,1,,351
2013-7-26,83,71,60,69,64,58,93,78,49,30.08,30.05,29.98,10,9,1,6,1,,0.00,2,Rain,286
2013-7-27,83,74,65,69,65,55,89,72,51,30.01,29.96,29.92,10,10,7,12,4,,0.00,4,,308
2013-7-28,81,68,56,60,56,50,88,64,38,30.08,30.05,30.00,10,10,10,8,3,,0.00,0,,217
2013-7-29,80,70,61,67,62,58,92,74,51,30.18,30.14,30.07,10,10,5,6,1,,0.00,0,,141
2013-7-30,76,72,68,72,68,63,90,83,72,30.15,30.09,30.03,10,8,2,9,4,,0.34,7,Rain,133
2013-7-31,87,78,70,75,72,68,94,81,61,30.04,30.00,29.95,10,8,1,12,2,,0.08,5,,345